Regional Weather Roundup
Issued by NWS

Home | Current Version | Previous Version | Text Only | Print | Product List | Glossary Off
Versions: 1 2 3 4 5 6 7 8 9 10 11 12 13 14 15 16 17 18 19 20 21 22 23 24 25 26 27 28 29 30 31 32 33 34 35 36 37 38 39 40 41 42 43 44 45 46 47 48 49 50

000
ASUS43 KOAX 210510
RWRNE

WEATHER ROUNDUP FOR NEBRASKA
NATIONAL WEATHER SERVICE OMAHA NE
1200 AM CDT FRI JUL 21 2017

NOTES: SATELLITE DATA IS BEING USED TO AUGMENT CLOUD COVER ABOVE
       12000 FEET.
       "FAIR" INDICATES FEW OR NO CLOUDS BELOW 12,000 FEET WITH NO
       SIGNIFICANT WEATHER AND/OR OBSTRUCTIONS TO VISIBILITY.


NEZ001>004-019>022-054>056-210600-
NEBRASKA PANHANDLE

CITY           SKY/WX    TMP DP  RH WIND       PRES   REMARKS
SCOTTSBLUFF    PTCLDY    77  63  61 VRB3      30.00R THUNDER
ALLIANCE       PTCLDY    73  63  70 S7        29.98S
CHADRON        CLOUDY    82  60  47 S9        29.91S
GORDON         FAIR      74  66  75 SE3       29.96S
KIMBALL        CLOUDY    79  58  49 SW13G21   30.10R
SIDNEY         CLOUDY    72  61  68 S5        30.04R
$$

NEZ057>060-069>072-079>082-210600-
SOUTHWEST NEBRASKA

CITY           SKY/WX    TMP DP  RH WIND       PRES   REMARKS
NORTH PLATTE   CLOUDY    77  76  96 E9        29.89S
IMPERIAL       CLOUDY    76  67  73 CALM      29.92S
LEXINGTON      CLEAR     80  75  86 SE9       29.89S
MCCOOK         CLEAR     84  61  45 S9        29.88S
OGALLALA       CLOUDY    78  68  71 CALM      29.93S
$$

NEZ005>010-023>029-035>040-094-210600-
NORTH CENTRAL NEBRASKA

CITY           SKY/WX    TMP DP  RH WIND       PRES   REMARKS
VALENTINE      PTCLDY    80  67  64 SE10      29.90F
AINSWORTH      CLEAR     76  74  94 SE7       29.91F
BROKEN BOW     CLEAR     78  75  90 SE7       29.90F
O`NEILL        CLOUDY    78  76  93 SE7       29.89F
ORD            MOCLDY    76  72  87 CALM      29.87F
THEDFORD       CLOUDY    78  72  81 E3        29.93F
$$

NEZ041-046>049-061>064-073>077-083>087-210600-
SOUTH CENTRAL NEBRASKA

CITY           SKY/WX    TMP DP  RH WIND       PRES   REMARKS
GRAND ISLAND   CLEAR     81  74  79 S12       29.89S
AURORA         CLEAR     80  73  79 S10       29.89S
HASTINGS       CLEAR     82  70  66 S8        29.91S
HEBRON         CLEAR     86  67  53 S9G16     29.90S
HOLDREGE       CLEAR     77  67  70 SE9       29.90R
KEARNEY        CLEAR     80  71  74 S10       29.90R
YORK           CLEAR     81  73  78 S8        29.90S
$$

NEZ011>018-030>034-042>045-210600-
NORTHEAST NEBRASKA

CITY           SKY/WX    TMP DP  RH WIND       PRES   REMARKS
NORFOLK        CLOUDY    77  69  76 E8        29.88F
ALBION         CLEAR     78  74  87 SE6       29.89F
BLAIR          CLOUDY    84  77  78 SE7       29.91R HX  94
COLUMBUS       CLOUDY    77  76  96 E8        29.88F
FREMONT        CLOUDY    84  76  77 E6        29.89S HX  93
TEKAMAH        CLOUDY    77  71  82 NE5       29.89S
WAYNE          CLOUDY    75  74  99 CALM      29.89F
$$

NEZ050>053-065>068-078-088>093-210600-
SOUTHEAST NEBRASKA

CITY           SKY/WX    TMP DP  RH WIND       PRES   REMARKS
LINCOLN        CLEAR     82  71  69 S8        29.89S
OMAHA EPPLEY   CLOUDY    87  77  72 SE12      29.89R HX  99
BEATRICE       CLEAR     86  68  55 S10       29.90S
FALLS CITY     CLEAR     85  73  67 S12       29.91R HX  91
NEBRASKA CITY  CLEAR     82  77  86 S8        29.92R
PLATTSMOUTH    CLEAR     85  74  68 S9        29.91R HX  92
$$

NEZ044-045-051>053-067-210600-
OMAHA AREA

CITY           SKY/WX    TMP DP  RH WIND       PRES   REMARKS
OMAHA EPPLEY   CLOUDY    87  77  72 SE12      29.89R HX  99
BLAIR          CLOUDY    84  77  78 SE7       29.91R HX  94
FREMONT        CLOUDY    84  76  77 E6        29.89S HX  93
MILLARD        CLOUDY    87  80  80 SE3       29.90R HX 101
OFFUTT AFB     CLOUDY    82  78  85 E6        29.89R HX  91
PLATTSMOUTH    CLEAR     85  74  68 S9        29.91R HX  92
WAHOO          FAIR      82  75  80 S7        29.89S
$$




USA.gov is the U.S. government's official web portal to all federal, state and local government web resources and services.